User: anonymous   Login
Location: Indian Tree Observatory
(39.4030°N, 104.5929°W)
Time: 08:52:16
(UTC-06:00)
Language:

Envisat - Orbit

View from above orbital plane
View from above orbital plane
View from above satellite
View from above satellite

Ground track
Ground track

The orbit data is extracted from the following two-line orbital elements,

1 27386U 02009A   19083.67201044 -.00000009  00000-0  10498-4 0  9998
2 27386  98.1576 109.0623 0001385  95.7734  12.8833 14.37944131893830
Epoch (UTC): 24 March 2019 16:07:41
Eccentricity: 0.0001385
inclination: 98.1576°
perigee height: 764 km
apogee height: 766 km
right ascension of ascending node: 109.0623°
argument of perigee: 95.7734°
revolutions per day: 14.37944131
mean anomaly at epoch: 12.8833°
orbit number at epoch: 89383

The dashed part of the orbit path shows where the satellite is in the earth's shadow,  

DLR